Probability
0 0 0 0 0 0 0 0 0 0 0 0 0 0 0 0 0 0 0 0 0 0 0 0 0 0 0 0 0 0 0 0 0 0 0 0 0 0 0 0 0 0 0 0
0 0 0 0 0 0 0 0 0 0 0 0 0 0 0 0 0 0 0 0 0 0 0 0 0 0 0 0 0 0 0 0 0 0 0 0 0 0 0 0 0 0 0 0
0 0 0 0 0 0 0 0 0 0 0 0 0 0 0 0 0 0 0 0 0 0 0 0 0 0 0 0 0 0 0 0 0 0 0 0 0 0 0 0 0 0 0 0
0 0 0 0 0 0 0 0 0 0 0 0 0 0 0 0 0 0 0 0 0 0 0 0 0 0 0 0 0 0 0 0 0 0 0 0 0 0 0 0 0 0 0 0
0 0 0 0 0 0 0 0 0 0 0 0 0 0 0 0 0 0 0 0 0 0 0 0 0 0 0 0 0 0 0 0 0 0 0 0 0 0 0 0 0 0 0 0
0 0 0 0 0 0 0 0 0 0 0 0 0 0 0 0 0 0 0 0 0 0 0 0 0 0 0 0 0 0 0 0 0 0 0 0 0 0 0 0 0 0 0 0
0 0 0 0 0 0 0 0 0 0 0 0 0 0 0 0 0 0 0 0 0 0 0 0 0 0 0 0 0 0 0 0 0 0 0 0 0 0 0 0 0 0 0 0
0 0 0 0 0 0 0 0 0 0 0 0 0 0 0 0 0 0 0 0 0 0 0 0 0 0 0 0 0 0 0 0 0 0 0 0 0 0 0 0 0 0 0 0
0 0 0 0 0 0 0 0 0 0 0 0 0 0 0 0 0 0 0 0 0 0 0 0 0 0 0 0 0 0 0 0 0 0 0 0 0 0 0 0 0 0 0 0
0 0 0 0 0 0 0 0 0 0 0 0 0 0 0 0 0 0 0 0 0 0 0 0 0 0 0 0 0 0 0 0 0 0 0 0 0 0 0 0 0 0 0 0
0 0 0 0 0 0 0 0 0 0 0 0 0 0 0 0 0 0 0 0 0 0 0 0 0 0 0 0 0 0 0 0 0 0 0 0 0 0 0 0 0 0 0 0
0 0 0 0 0 0 0 0 0 0 0 0 0 0 0 0 0 0 0 0 0 0 0 0 0 0 0 0 0 0 0 0 0 0 0 0 0 0 0 0 0 0 0 0
0 0 0 0 0 0 0 0 0 0 0 0 0 0 0 0 0 0 0 0 0 0 0 0 0 0 0 0 0 0 0 0 0 0 0 0 0 0 0 0 0 0 0 0
0 0 0 0 0 0 0 0 0 0 0 0 0 0 0 0 0 0 0 0 0 0 0 0 0 0 0 0 0 0 0 0 0 0 0 0 0 0 0 0 0 0 0 0
0 0 0 0 0 0 0 0 0 0 0 0 0 0 0 0 0 0 0 0 0 0 0 0 0 0 0 0 0 0 0 0 0 0 0 0 0 0 0 0 0 0 0 0
0 0 0 0 0 0 0 0 0 0 0 0 0 0 0 0 0 0 0 0 0 0 0 0 0 0 0 0 0 0 0 0 0 0 0 0 0 0 0 0 0 0 0 0
0 0 0 0 0 0 0 0 0 0 0 0 0 0 0 0 0 0 0 0 0 0 0 0 0 0 0 0 0 0 0 0 0 0 0 0 0 0 0 0 0 0 0 0
0 0 0 0 0 0 0 0 0 0 0 0 0 0 0 0 0 0 0 0 0 0 0 0 0 0 0 0 0 0 0 0 0 0 0 0 0 0 0 0 0 0 0 0
0 0 0 0 0 0 0 0 0 0 0 0 0 0 0 0 0 0 0 0 0 0 0 0 0 0 0 0 0 0 0 0 0 0 0 0 0 0 0 0 0 0 0 0
0 0 0 0 0 0 0 0 0 0 0 0 0 0 0 0 0 0 0 0 0 0 0 0 0 0 0 0 0 0 0 0 0 0 0 0 0 0 0 0 0 0 0 0
0 0 0 0 0 0 0 0 0 0 0 0 0 0 0 0 0 0 0 0 0 0 0 0 0 0 0 0 0 0 0 0 0 0 0 0 0 0 0 0 0 0 0 0
0 0 0 0 0 0 0 0 0 0 0 0 0 0 0 0 0 0 0 0 0 0 0 0 0 0 0 0 0 0 0 0 0 0 0 0 0 0 0 0 0 0 0 0
0 0 0 0 0 0 0 0 0 0 0 0 0 0 0 0 0 0 0 0 0 0 0 0 0 0 0 0 0 0 0 0 0 0 0 0 0 0 0 0 0 0 0 0
0 0 0 0 0 0 0 0 0 0 0 0 0 0 0 0 0 0 0 0 0 0 0 0 0 0 0 0 0 0 0 0 0 0 0 0 0 0 0 0 0 0 0 0
0 0 0 0 0 0 0 0 0 0 0 0 0 0 0 0 0 0 0 0 0 0 0 0 0 0 0 0 0 0 0 0 0 0 0 0 0 0 0 0 0 0 0 0
0 0 0 0 0 0 0 0 0 0 0 0 0 0 0 0 0 0 0 0 0 0 0 0 0 0 0 0 0 0 0 0 0 0 0 0 0 0 0 0 0 0 0 0
0 0 0 0 0 0 0 0 0 0 0 0 0 0 0 0 0 0 0 0 0 0 0 0 0 0 0 0 0 0 0 0 0 0 0 0 0 0 0 0 0 0 0 0
Wind_Speed
7 5 4 7 10 12 14 14 12 13 13 13 10 7 6 4 4 4 4 4 3 3 2 2 2 3 3 3 3 2 2 2 2 3 3 3 3 3 3 3 3 3 3 3
6 5 6 9 13 14 15 14 16 15 16 13 8 5 5 6 5 6 6 5 4 3 3 3 3 3 3 3 3 2 2 3 3 3 3 3 3 3 3 3 3 3 3 4
5 2 4 11 13 15 11 12 12 15 13 6 5 6 6 6 6 7 7 6 5 4 3 3 3 3 3 3 3 2 2 3 3 3 3 3 3 3 3 4 3 4 4 4
3 2 10 7 2 8 11 11 13 12 10 7 7 5 5 6 7 7 6 5 5 4 3 3 3 3 3 2 2 2 3 3 3 3 3 3 3 4 4 3 4 4 4 5
4 6 11 7 4 6 8 9 10 14 13 8 3 4 6 5 6 7 6 4 4 3 3 3 2 2 2 2 2 3 3 4 4 3 4 4 4 5 4 4 4 4 4 5
5 7 10 6 2 3 3 6 4 8 9 5 3 4 3 2 3 4 3 3 2 2 2 3 2 2 2 3 3 4 5 5 4 4 4 5 5 5 4 4 4 4 4 4
8 9 10 4 2 5 6 5 0 3 4 4 6 4 3 4 4 3 2 2 1 2 2 2 2 2 3 4 5 5 4 4 4 4 4 4 4 4 3 3 3 4 4 4
7 9 12 4 6 8 5 1 1 2 3 5 6 5 5 5 4 3 3 2 1 2 3 2 1 2 4 5 5 4 4 4 4 4 4 3 3 3 3 3 3 3 4 4
10 8 2 5 5 2 1 1 2 3 4 4 5 6 6 6 5 4 4 3 2 2 3 3 2 2 4 5 4 4 4 4 4 4 3 3 3 3 3 3 3 3 3 4
7 9 5 5 5 4 4 4 4 4 4 4 6 7 7 6 5 5 4 3 2 2 3 4 3 3 4 4 3 3 4 4 4 3 4 3 2 2 3 3 3 3 4 4
8 7 5 5 7 7 6 5 6 6 5 6 6 7 7 6 5 5 4 3 3 4 4 5 4 4 4 3 3 3 4 4 4 3 3 3 3 3 4 4 4 4 4 4
8 5 5 5 2 3 5 6 6 6 6 5 6 8 7 6 5 5 4 4 4 4 5 5 4 4 4 3 3 3 4 4 3 3 3 3 3 3 5 5 6 8 8 7
6 3 5 5 4 3 4 6 5 5 6 6 5 6 6 6 4 4 4 5 5 5 5 4 4 5 4 3 3 4 5 4 3 3 3 3 3 3 4 4 6 7 8 9
5 3 5 5 5 4 4 4 3 4 4 5 5 4 4 4 4 5 6 5 4 4 4 4 5 5 4 3 3 4 5 5 4 4 3 4 4 4 4 4 5 5 6 8
7 7 8 5 4 4 3 3 4 5 5 5 4 4 4 5 5 6 5 3 3 3 4 4 5 6 3 3 4 4 4 4 4 3 3 4 4 4 4 5 5 5 5 5
6 5 5 6 8 7 5 4 6 7 6 5 5 5 5 5 5 5 4 3 3 5 5 5 6 5 3 3 4 4 4 5 4 3 3 3 3 4 4 4 5 5 5 5
5 6 6 6 8 8 7 8 7 7 6 6 7 5 4 4 4 4 4 4 4 5 5 5 6 4 3 3 4 3 3 3 4 3 4 4 4 4 4 5 5 5 5 6
8 8 8 7 7 8 8 7 6 7 7 7 5 4 4 5 6 6 5 3 4 5 5 4 4 3 3 3 3 3 3 3 3 3 4 4 4 4 5 5 6 6 6 5
5 6 6 6 6 6 7 7 7 6 6 4 5 5 6 6 6 5 4 3 5 6 5 3 4 3 4 4 3 3 3 3 4 4 4 5 4 4 5 5 5 6 6 5
5 5 5 5 5 5 6 6 6 5 4 4 4 5 5 5 4 4 4 5 5 5 4 4 4 4 4 4 4 3 3 4 4 4 4 4 4 5 5 5 6 6 6 6
5 5 5 5 5 5 5 5 5 5 4 4 4 6 6 5 3 3 4 5 4 3 3 4 3 3 3 3 3 3 3 4 4 4 4 4 5 5 5 5 6 6 6 6
4 5 5 5 5 5 4 3 4 4 4 4 4 4 4 4 4 4 5 5 4 3 3 3 3 4 4 4 3 3 4 4 4 4 4 5 5 5 5 6 6 6 6 6
4 4 4 4 4 5 4 3 3 3 4 4 4 4 5 4 4 4 5 3 3 4 4 4 4 5 5 4 3 4 4 4 5 5 5 5 5 5 6 6 6 6 6 6
4 4 4 3 3 3 4 5 4 3 3 4 4 4 4 4 4 4 4 4 5 5 4 5 6 6 5 3 3 4 4 5 5 5 5 5 5 5 5 6 6 6 6 7
4 3 3 3 3 3 4 5 4 4 3 3 4 4 3 3 4 4 4 4 5 5 4 5 6 6 4 4 4 4 5 5 5 5 5 5 5 5 5 5 5 6 6 6
4 3 3 3 3 3 3 3 3 3 3 4 4 3 3 3 3 4 3 4 5 5 4 4 4 4 4 4 4 5 5 5 5 5 6 6 6 6 6 6 7 6 6 6
4 3 3 3 3 3 3 3 3 4 4 4 5 4 4 3 3 3 4 4 4 4 4 4 4 4 4 4 5 5 5 5 5 5 5 6 6 6 6 7 6 6 6 6
Wind_Direction
264 269 244 244 234 215 219 228 236 249 253 265 266 269 274 271 263 265 273 277 273 274 294 313 323 328 332 336 340 336 320 310 291 281 280 280 282 282 277 266 260 258 258 262
264 254 255 263 249 231 232 237 244 259 264 268 277 269 264 261 255 260 265 270 270 272 282 289 296 303 311 318 326 321 301 299 302 287 276 273 278 280 278 276 270 259 253 256
251 265 281 258 233 213 217 221 221 236 248 251 248 242 250 253 253 256 260 259 259 260 261 274 283 288 291 302 311 306 297 294 294 286 273 269 273 271 271 274 275 270 262 260
250 223 239 240 176 206 218 233 226 241 254 255 256 274 266 254 252 256 258 257 259 262 262 272 283 285 294 304 302 296 299 299 297 291 277 273 267 263 267 270 265 264 265 262
210 244 266 273 216 192 209 254 232 233 249 262 275 287 267 254 246 250 251 254 261 261 265 273 273 277 284 290 293 291 290 290 290 290 285 273 264 265 268 267 266 266 267 266
208 233 246 254 175 187 184 262 237 221 244 247 206 253 276 340 295 268 268 261 260 264 265 265 270 271 272 277 280 279 284 288 289 283 277 267 262 265 271 264 266 272 271 269
222 239 257 260 156 162 198 247 234 213 234 209 223 259 316 319 310 297 288 285 271 252 259 266 272 265 267 275 275 285 296 295 290 285 281 274 266 264 266 267 272 273 276 278
200 224 246 172 158 199 233 7 198 236 235 234 254 284 294 299 299 292 286 280 264 266 279 286 274 262 268 273 288 302 297 290 290 291 289 287 272 267 262 257 263 272 279 283
203 223 292 166 202 238 358 249 263 270 263 247 264 274 280 283 282 278 271 270 267 260 279 288 276 260 266 281 303 302 294 288 293 299 295 289 269 259 257 252 256 266 271 278
241 254 245 230 249 265 253 255 270 275 274 254 260 269 272 274 274 273 271 267 268 259 268 281 285 272 267 285 298 286 280 286 292 293 293 291 272 256 254 251 254 258 264 273
245 263 283 260 242 251 254 257 267 272 266 259 260 266 267 268 265 265 269 270 259 252 257 269 283 279 278 280 281 272 277 283 287 283 281 280 269 258 259 257 258 263 269 272
233 228 226 252 256 244 246 257 261 266 274 269 258 263 267 264 261 262 263 264 263 262 263 270 275 276 278 274 256 256 268 274 277 277 270 267 271 277 264 266 274 273 277 278
245 241 235 258 276 262 256 265 264 254 257 270 270 261 260 264 263 262 261 256 254 259 266 271 273 274 277 266 248 250 260 268 270 263 258 259 261 267 282 286 277 276 280 282
245 251 260 254 259 268 263 274 281 277 273 270 270 268 262 266 269 262 262 264 266 267 267 266 269 272 274 260 250 253 260 262 260 253 251 253 254 257 262 272 286 289 287 286
240 231 241 263 279 283 276 279 279 277 282 285 273 258 255 257 262 269 278 280 275 270 268 267 268 273 277 258 251 253 257 259 253 251 251 252 257 260 262 264 269 279 289 291
246 243 243 253 261 266 266 260 260 268 272 276 274 264 260 261 268 275 276 261 255 268 272 268 269 276 274 258 255 255 255 258 254 252 252 251 252 254 257 261 267 271 275 284
231 245 241 248 253 257 255 251 252 260 265 265 267 271 270 266 267 268 271 267 262 267 270 268 272 281 268 254 252 258 259 253 244 248 247 247 249 251 253 257 261 266 271 276
230 239 241 244 252 257 261 259 256 256 256 260 266 263 254 249 256 264 273 283 284 283 277 275 274 275 267 259 252 258 256 250 245 245 249 248 250 252 253 255 260 266 275 279
255 256 259 257 255 253 256 259 260 261 263 259 254 253 254 253 255 263 270 270 269 275 279 279 281 284 275 267 262 253 247 246 248 247 249 251 253 253 255 257 261 266 272 274
274 273 274 272 265 253 256 261 264 265 261 251 253 258 264 263 258 258 257 255 253 265 275 277 275 274 271 265 270 259 244 240 244 249 252 254 257 260 260 259 261 264 266 267
286 288 287 283 280 274 265 262 260 264 267 252 246 253 261 270 263 248 250 266 269 269 269 264 264 270 270 270 262 253 244 241 242 245 247 252 257 261 262 262 261 262 265 267
286 288 289 288 287 290 291 284 271 266 269 265 259 257 260 268 265 257 247 255 270 270 272 269 268 268 271 271 258 247 242 242 244 246 247 249 253 257 261 264 264 265 266 268
293 292 293 292 289 293 304 298 282 271 267 267 265 263 261 264 261 261 271 269 269 268 270 268 271 271 271 266 256 247 245 246 247 247 250 251 253 255 259 263 264 266 269 270
308 307 302 303 306 305 304 305 302 292 283 280 272 263 263 271 273 264 269 273 271 271 273 271 272 273 274 268 259 251 249 250 250 251 254 256 257 257 259 262 265 267 269 271
315 317 321 321 310 300 301 311 314 311 307 299 293 284 269 260 265 277 282 278 276 276 278 276 276 278 275 270 263 257 254 253 253 254 254 256 258 259 261 262 264 268 270 270
321 317 313 308 300 300 303 305 304 305 308 304 303 302 297 290 278 277 278 275 274 276 279 280 276 273 271 270 267 265 263 263 260 256 256 258 259 261 263 265 267 266 268 268
325 323 321 320 320 311 302 297 294 294 294 291 295 299 301 299 292 288 286 283 282 282 283 281 277 273 272 271 270 269 266 265 264 263 262 262 262 263 266 268 268 268 268 266